Location: Toronto
(43.6667°N, 79.4167°W)
Time: 15:49:09
(UTC-05:00)

ISS - Pass Details

Date: 10 December 2022
Orbit: 412 x 423 km, 51.6° (Epoch: 07 February)

Event Time Altitude Azimuth Distance (km) Brightness Sun altitude
Rises 17:17:52 0° 286° (WNW) 2,345 0.9 -6.7°
Maximum altitude 17:22:23 13° 229° (SW) 1,326 0.2 -7.5°
Drops below altitude 10° 17:23:55 10° 201° (SSW) 1,477 -0.3 -7.7°
Sets 17:26:55 0° 171° (S) 2,338 0.2 -8.2°
